Tracking 22438 objects as of 25-Feb-2021
HD Live streaming from Space Station
objects crossing your sky now

SUPERBIRD A

Track SUPERBIRD A now!
SUPERBIRD A is classified as:


NORAD ID: 20040
Int'l Code: 1989-041A
Perigee: 35,899.0 km
Apogee: 35,988.1 km
Inclination: 14.3 °
Period: 1,443.8 minutes
Semi major axis: 42314 km
RCS: 4.409 m2 (large)
Launch date: June 5, 1989
Source: Japan (JPN)
Launch site: FRENCH GUIANA (FRGUI)
aabbcc
Your satellite tracking list
Your tracking list is empty




NASA's NSSDC Master Catalog

Two Line Element Set (TLE):
1 20040U 89041A   21055.58966740 -.00000015  00000-0  00000-0 0  9993
2 20040  14.3369 347.2358 0010520  19.6384 252.3816  0.99739775115128
Source of the keplerian elements: AFSPC